WXM80 ListenWXM80 Stop

You find our weather info also at:

UK Metoffice

WeatherCloud

Weather Underground

Northeastern Weather Network

AWEKAS

Citizen Weather Observer Program (CWOP)

HAMweather, WeatherForYou, PWS Weather


Weather Underground History page Text

Daily Summary for January 23, 2016 Units:  English    Metric   Both
« Previous Day
Next Day »
Daily Weekly Monthly Yearly Custom
  High: Low: Average:
Temperature: 30.4 °F 26.5 °F 28.6 °F
Dew Point: 29.7 °F 21.4 °F 27.1 °F
Humidity: 97 % 71 % 94 %
Wind Speed: 27.2 mph 5.1 mph 15.5 mph
Wind Gust: 35.7 mph - -
Wind:- - ENE
Pressure: 30.10 in 29.57 in -
Precipitation: 0.53 in    
Historical Graphs
 
 
Tabular Data for January 23, 2016
Time Temperature Dew Point Pressure Wind Wind Speed Wind Gust Humidity Rainfall Rate (Hourly)
00:02 29.7 °F 21.4 °F 30.10 in ESE 8.2 mph 10.4 mph 71 % 0.00 in
00:12 29.2 °F 21.9 °F 30.10 in East 7.7 mph 10.4 mph 74 % 0.00 in
00:18 29.0 °F 22.4 °F 30.09 in East 8.3 mph 12.7 mph 76 % 0.00 in
00:23 28.9 °F 22.6 °F 30.08 in ENE 7.9 mph 12.7 mph 77 % 0.00 in
00:28 28.8 °F 23.1 °F 30.07 in East 7.8 mph 15.0 mph 79 % 0.00 in
00:33 28.7 °F 23.3 °F 30.07 in East 10.5 mph 15.0 mph 80 % 0.00 in
00:38 28.6 °F 23.5 °F 30.07 in NNE 8.1 mph 11.5 mph 81 % 0.00 in
00:43 28.4 °F 23.9 °F 30.07 in ENE 7.1 mph 11.5 mph 83 % 0.00 in
00:48 28.3 °F 24.4 °F 30.07 in ENE 8.3 mph 13.0 mph 85 % 0.00 in
00:53 28.2 °F 24.6 °F 30.07 in ENE 6.9 mph 10.4 mph 86 % 0.00 in
00:58 28.3 °F 24.9 °F 30.06 in East 5.3 mph 8.1 mph 87 % 0.00 in
01:03 28.1 °F 24.7 °F 30.06 in East 7.8 mph 10.4 mph 87 % 0.00 in
01:09 27.9 °F 24.8 °F 30.05 in East 5.8 mph 10.4 mph 88 % 0.00 in
01:14 27.8 °F 24.7 °F 30.05 in East 7.9 mph 11.5 mph 88 % 0.00 in
01:19 27.8 °F 24.7 °F 30.04 in ENE 6.3 mph 9.2 mph 88 % 0.00 in
01:24 28.0 °F 24.6 °F 30.04 in NE 10.2 mph 13.0 mph 87 % 0.00 in
01:29 28.2 °F 24.0 °F 30.04 in ENE 12.3 mph 16.1 mph 84 % 0.00 in
01:34 28.3 °F 23.5 °F 30.03 in ENE 12.7 mph 17.3 mph 82 % 0.00 in
01:39 28.5 °F 23.1 °F 30.03 in NE 11.9 mph 17.3 mph 80 % 0.00 in
01:44 28.7 °F 22.7 °F 30.03 in ENE 13.0 mph 15.0 mph 78 % 0.00 in
01:49 28.8 °F 22.2 °F 30.02 in ENE 10.8 mph 16.1 mph 76 % 0.00 in
01:54 28.9 °F 22.0 °F 30.02 in ENE 14.8 mph 19.6 mph 75 % 0.00 in
02:00 28.9 °F 21.7 °F 30.02 in NE 15.0 mph 24.0 mph 74 % 0.00 in
02:05 28.9 °F 21.7 °F 30.02 in ENE 14.9 mph 24.2 mph 74 % 0.00 in
02:10 28.9 °F 22.0 °F 30.01 in East 10.5 mph 23.0 mph 75 % 0.00 in
02:15 28.8 °F 21.9 °F 29.99 in East 13.4 mph 17.3 mph 75 % 0.00 in
02:20 28.6 °F 22.0 °F 29.98 in East 14.7 mph 19.6 mph 76 % 0.00 in
02:25 28.4 °F 22.4 °F 29.97 in ENE 13.9 mph 19.6 mph 78 % 0.00 in
02:30 28.2 °F 22.8 °F 29.98 in NE 12.8 mph 23.0 mph 80 % 0.00 in
02:35 28.0 °F 23.2 °F 29.97 in NE 14.6 mph 19.6 mph 82 % 0.00 in
02:40 27.9 °F 23.7 °F 29.97 in ENE 13.8 mph 21.9 mph 84 % 0.00 in
02:45 27.7 °F 24.1 °F 29.97 in East 16.2 mph 24.2 mph 86 % 0.00 in
02:51 27.3 °F 23.9 °F 29.96 in NNE 17.4 mph 23.0 mph 87 % 0.00 in
02:56 27.2 °F 24.1 °F 29.96 in ENE 15.9 mph 23.0 mph 88 % 0.00 in
03:01 27.2 °F 24.4 °F 29.96 in ENE 14.1 mph 18.4 mph 89 % 0.00 in
03:06 27.2 °F 24.1 °F 29.96 in NE 13.9 mph 21.9 mph 88 % 0.00 in
03:11 27.3 °F 24.2 °F 29.95 in East 15.2 mph 21.9 mph 88 % 0.00 in
03:16 27.3 °F 23.9 °F 29.97 in ENE 12.5 mph 18.4 mph 87 % 0.00 in
03:21 27.4 °F 24.3 °F 29.96 in ENE 12.9 mph 17.0 mph 88 % 0.00 in
03:26 27.6 °F 24.2 °F 29.94 in ENE 14.4 mph 24.2 mph 87 % 0.00 in
03:31 27.8 °F 24.2 °F 29.93 in ENE 19.5 mph 25.3 mph 86 % 0.00 in
03:36 28.1 °F 23.9 °F 29.93 in ENE 12.9 mph 21.9 mph 84 % 0.00 in
03:42 28.3 °F 24.4 °F 29.92 in East 14.4 mph 18.4 mph 85 % 0.00 in
03:47 28.4 °F 24.2 °F 29.91 in East 17.2 mph 24.2 mph 84 % 0.00 in
03:52 28.5 °F 24.0 °F 29.90 in ENE 17.9 mph 26.5 mph 83 % 0.00 in
03:57 28.5 °F 24.3 °F 29.90 in NE 14.5 mph 20.7 mph 84 % 0.00 in
04:02 28.4 °F 24.5 °F 29.91 in East 16.0 mph 26.5 mph 85 % 0.00 in
04:07 28.3 °F 24.9 °F 29.91 in ENE 16.3 mph 23.0 mph 87 % 0.00 in
04:12 28.4 °F 25.3 °F 29.92 in East 15.8 mph 23.0 mph 88 % 0.00 in
04:17 28.4 °F 25.6 °F 29.92 in East 16.8 mph 24.2 mph 89 % 0.00 in
04:22 28.4 °F 25.8 °F 29.92 in ENE 19.4 mph 25.3 mph 90 % 0.00 in
04:27 28.2 °F 25.9 °F 29.92 in ENE 19.9 mph 25.0 mph 91 % 0.00 in
04:33 28.1 °F 25.8 °F 29.92 in ENE 15.9 mph 19.6 mph 91 % 0.00 in
04:38 28.1 °F 26.1 °F 29.91 in ENE 16.7 mph 23.0 mph 92 % 0.00 in
04:43 28.1 °F 26.3 °F 29.90 in ENE 18.3 mph 28.8 mph 93 % 0.00 in
04:48 27.9 °F 26.1 °F 29.88 in ENE 17.9 mph 25.3 mph 93 % 0.00 in
04:53 27.9 °F 26.4 °F 29.86 in ENE 17.2 mph 27.0 mph 94 % 0.00 in
04:58 27.9 °F 26.4 °F 29.86 in East 20.4 mph 29.9 mph 94 % 0.00 in
05:03 28.1 °F 26.6 °F 29.86 in NE 22.3 mph 29.9 mph 94 % 0.00 in
05:13 28.1 °F 26.6 °F 29.86 in NE 17.6 mph 24.0 mph 94 % 0.00 in
05:24 28.2 °F 26.7 °F 29.84 in ENE 19.0 mph 26.0 mph 94 % 0.00 in
05:34 28.3 °F 26.8 °F 29.84 in ENE 18.8 mph 29.9 mph 94 % 0.00 in
05:44 28.4 °F 26.9 °F 29.83 in NE 19.1 mph 25.3 mph 94 % 0.00 in
05:49 28.5 °F 27.0 °F 29.84 in East 16.8 mph 26.5 mph 94 % 0.00 in
05:54 28.5 °F 27.0 °F 29.84 in ENE 18.1 mph 26.5 mph 94 % 0.00 in
05:59 28.5 °F 27.0 °F 29.84 in ENE 18.4 mph 24.2 mph 94 % 0.00 in
06:04 28.7 °F 27.2 °F 29.84 in ENE 17.2 mph 27.6 mph 94 % 0.00 in
06:10 28.9 °F 27.4 °F 29.84 in ENE 21.6 mph 28.8 mph 94 % 0.00 in
06:15 29.0 °F 27.5 °F 29.84 in NE 18.8 mph 26.5 mph 94 % 0.00 in
06:20 29.2 °F 27.9 °F 29.85 in NE 18.5 mph 27.0 mph 95 % 0.00 in
06:25 29.3 °F 28.0 °F 29.83 in East 21.0 mph 31.1 mph 95 % 0.00 in
06:30 29.4 °F 28.1 °F 29.83 in ENE 21.8 mph 32.2 mph 95 % 0.00 in
06:35 29.3 °F 28.0 °F 29.83 in East 22.3 mph 28.8 mph 95 % 0.00 in
06:40 29.4 °F 28.1 °F 29.83 in ENE 18.0 mph 25.0 mph 95 % 0.00 in
06:45 29.3 °F 28.0 °F 29.82 in ENE 22.4 mph 32.0 mph 95 % 0.01 in
06:50 29.4 °F 28.4 °F 29.83 in ENE 16.0 mph 22.0 mph 96 % 0.01 in
06:55 29.6 °F 28.6 °F 29.83 in East 22.7 mph 27.6 mph 96 % 0.01 in
07:01 29.6 °F 28.6 °F 29.82 in ENE 18.0 mph 27.6 mph 96 % 0.01 in
07:06 29.5 °F 28.5 °F 29.80 in ENE 22.9 mph 32.2 mph 96 % 0.01 in
07:11 29.5 °F 28.5 °F 29.80 in NE 21.8 mph 27.6 mph 96 % 0.01 in
07:16 29.5 °F 28.5 °F 29.81 in ENE 22.9 mph 31.1 mph 96 % 0.01 in
07:21 29.5 °F 28.5 °F 29.80 in ENE 25.1 mph 33.0 mph 96 % 0.02 in
07:26 29.4 °F 28.4 °F 29.80 in ENE 21.4 mph 27.6 mph 96 % 0.02 in
07:31 29.4 °F 28.4 °F 29.80 in ENE 18.4 mph 28.8 mph 96 % 0.02 in
07:36 29.4 °F 28.4 °F 29.80 in ENE 20.0 mph 32.2 mph 96 % 0.02 in
07:41 29.6 °F 28.6 °F 29.79 in East 19.3 mph 34.5 mph 96 % 0.02 in
07:46 29.6 °F 28.9 °F 29.79 in NE 27.2 mph 34.5 mph 97 % 0.02 in
07:58 29.6 °F 28.9 °F 29.78 in East 22.2 mph 29.0 mph 97 % 0.02 in
08:03 29.5 °F 28.5 °F 29.78 in NE 19.5 mph 32.2 mph 96 % 0.03 in
08:08 29.5 °F 28.5 °F 29.78 in NE 25.0 mph 31.1 mph 96 % 0.03 in
08:13 29.5 °F 28.5 °F 29.78 in ENE 22.4 mph 26.5 mph 96 % 0.03 in
08:18 29.6 °F 28.9 °F 29.76 in ENE 25.1 mph 30.0 mph 97 % 0.03 in
08:23 29.6 °F 28.9 °F 29.76 in ENE 20.1 mph 33.4 mph 97 % 0.02 in
08:28 29.6 °F 28.9 °F 29.75 in ENE 19.2 mph 33.4 mph 97 % 0.03 in
08:33 29.7 °F 29.0 °F 29.75 in ENE 25.0 mph 32.2 mph 97 % 0.03 in
08:38 29.7 °F 29.0 °F 29.75 in ENE 19.2 mph 29.9 mph 97 % 0.03 in
08:43 29.6 °F 28.9 °F 29.75 in East 24.6 mph 29.0 mph 97 % 0.03 in
08:49 29.5 °F 28.8 °F 29.75 in ENE 20.3 mph 26.5 mph 97 % 0.03 in
08:59 29.4 °F 28.7 °F 29.74 in ENE 20.2 mph 34.5 mph 97 % 0.03 in
09:04 29.4 °F 28.7 °F 29.73 in ENE 23.2 mph 28.8 mph 97 % 0.02 in
09:09 29.4 °F 28.7 °F 29.73 in East 22.9 mph 27.6 mph 97 % 0.03 in
09:14 29.6 °F 28.9 °F 29.74 in ENE 17.8 mph 28.8 mph 97 % 0.03 in
09:19 29.6 °F 28.9 °F 29.73 in ENE 22.5 mph 28.8 mph 97 % 0.03 in
09:24 29.6 °F 28.9 °F 29.74 in ENE 21.6 mph 28.8 mph 97 % 0.04 in
09:29 29.6 °F 28.9 °F 29.72 in East 17.1 mph 28.8 mph 97 % 0.03 in
09:40 29.9 °F 29.2 °F 29.70 in ENE 18.2 mph 34.5 mph 97 % 0.03 in
09:45 29.9 °F 29.2 °F 29.69 in NE 20.3 mph 28.8 mph 97 % 0.04 in
09:50 30.0 °F 29.3 °F 29.69 in ENE 20.8 mph 28.8 mph 97 % 0.03 in
09:55 30.0 °F 29.3 °F 29.68 in ENE 19.0 mph 31.1 mph 97 % 0.03 in
10:00 30.0 °F 29.3 °F 29.69 in East 19.5 mph 28.8 mph 97 % 0.03 in
10:05 30.1 °F 29.4 °F 29.68 in NE 24.7 mph 33.4 mph 97 % 0.04 in
10:10 30.2 °F 29.5 °F 29.69 in NE 17.8 mph 31.1 mph 97 % 0.03 in
10:15 30.2 °F 29.5 °F 29.69 in East 18.5 mph 26.5 mph 97 % 0.03 in
10:20 30.2 °F 29.5 °F 29.70 in East 20.6 mph 28.8 mph 97 % 0.02 in
10:25 30.2 °F 29.5 °F 29.69 in NE 17.3 mph 29.9 mph 97 % 0.03 in
10:31 30.2 °F 29.5 °F 29.69 in ENE 18.2 mph 33.4 mph 97 % 0.03 in
10:36 30.2 °F 29.5 °F 29.69 in ENE 16.1 mph 26.5 mph 97 % 0.03 in
10:41 30.1 °F 29.4 °F 29.68 in ENE 15.8 mph 26.5 mph 97 % 0.03 in
10:46 30.2 °F 29.5 °F 29.67 in NNE 16.3 mph 29.0 mph 97 % 0.02 in
10:51 30.2 °F 29.5 °F 29.68 in ENE 18.2 mph 28.8 mph 97 % 0.03 in
10:56 30.3 °F 29.6 °F 29.67 in ENE 19.7 mph 33.4 mph 97 % 0.03 in
11:01 30.3 °F 29.6 °F 29.67 in NE 16.8 mph 28.8 mph 97 % 0.03 in
11:06 30.4 °F 29.7 °F 29.67 in East 17.1 mph 31.1 mph 97 % 0.02 in
11:11 30.4 °F 29.7 °F 29.66 in NE 18.4 mph 25.3 mph 97 % 0.03 in
11:16 30.3 °F 29.6 °F 29.65 in NE 21.6 mph 27.6 mph 97 % 0.03 in
11:22 30.2 °F 29.5 °F 29.64 in NE 14.8 mph 24.2 mph 97 % 0.03 in
11:27 30.3 °F 29.6 °F 29.65 in ENE 15.9 mph 27.6 mph 97 % 0.03 in
11:32 30.3 °F 29.6 °F 29.65 in NE 16.0 mph 25.3 mph 97 % 0.03 in
11:37 30.2 °F 29.5 °F 29.64 in ENE 18.6 mph 26.5 mph 97 % 0.03 in
11:42 30.3 °F 29.6 °F 29.63 in NE 21.1 mph 27.6 mph 97 % 0.04 in
11:47 30.3 °F 29.6 °F 29.63 in ENE 18.7 mph 26.5 mph 97 % 0.03 in
11:52 30.3 °F 29.6 °F 29.62 in NNE 19.6 mph 31.1 mph 97 % 0.03 in
11:57 30.3 °F 29.6 °F 29.62 in ENE 15.9 mph 27.0 mph 97 % 0.04 in
12:02 30.3 °F 29.6 °F 29.62 in ENE 16.7 mph 29.9 mph 97 % 0.04 in
12:07 30.3 °F 29.6 °F 29.61 in NE 17.0 mph 21.9 mph 97 % 0.04 in
12:13 30.3 °F 29.6 °F 29.61 in ENE 18.5 mph 29.9 mph 97 % 0.04 in
12:18 30.2 °F 29.5 °F 29.60 in NE 12.6 mph 21.9 mph 97 % 0.04 in
12:23 30.2 °F 29.5 °F 29.60 in NE 16.4 mph 21.9 mph 97 % 0.04 in
12:28 30.2 °F 29.5 °F 29.60 in ENE 12.7 mph 28.8 mph 97 % 0.04 in
12:33 30.2 °F 29.5 °F 29.59 in NE 19.5 mph 27.0 mph 97 % 0.04 in
12:38 30.2 °F 29.5 °F 29.59 in NE 12.7 mph 19.6 mph 97 % 0.04 in
12:43 30.1 °F 29.4 °F 29.58 in ENE 11.7 mph 24.2 mph 97 % 0.03 in
12:48 30.1 °F 29.4 °F 29.58 in ENE 12.3 mph 20.7 mph 97 % 0.03 in
12:53 30.1 °F 29.4 °F 29.58 in NE 12.2 mph 26.5 mph 97 % 0.03 in
12:58 30.0 °F 29.3 °F 29.58 in NE 14.2 mph 24.0 mph 97 % 0.03 in
13:04 29.9 °F 29.2 °F 29.58 in NNE 16.1 mph 21.9 mph 97 % 0.03 in
13:09 29.9 °F 29.2 °F 29.58 in NE 11.5 mph 23.0 mph 97 % 0.03 in
13:14 29.9 °F 29.2 °F 29.58 in NNE 15.2 mph 24.2 mph 97 % 0.03 in
13:19 29.9 °F 29.2 °F 29.57 in NNE 10.5 mph 19.6 mph 97 % 0.03 in
13:24 29.8 °F 29.1 °F 29.58 in NE 13.9 mph 21.9 mph 97 % 0.04 in
13:29 29.7 °F 29.0 °F 29.57 in ENE 12.7 mph 25.3 mph 97 % 0.03 in
13:34 29.7 °F 29.0 °F 29.57 in ENE 12.4 mph 19.6 mph 97 % 0.03 in
13:39 29.6 °F 28.9 °F 29.58 in NE 14.7 mph 26.5 mph 97 % 0.03 in
13:44 29.7 °F 29.0 °F 29.59 in ENE 14.2 mph 25.0 mph 97 % 0.03 in
13:49 29.6 °F 28.9 °F 29.60 in NE 14.2 mph 26.5 mph 97 % 0.03 in
13:55 29.5 °F 28.8 °F 29.60 in NNE 12.2 mph 17.3 mph 97 % 0.03 in
14:00 29.5 °F 28.8 °F 29.60 in NNE 8.5 mph 11.5 mph 97 % 0.02 in
14:05 29.5 °F 28.8 °F 29.61 in NE 16.5 mph 21.9 mph 97 % 0.02 in
14:10 29.4 °F 28.7 °F 29.61 in NNE 12.3 mph 19.6 mph 97 % 0.01 in
14:15 29.4 °F 28.7 °F 29.62 in NE 13.6 mph 20.0 mph 97 % 0.02 in
14:20 29.3 °F 28.6 °F 29.62 in ENE 11.2 mph 15.0 mph 97 % 0.02 in
14:25 29.3 °F 28.6 °F 29.62 in NE 10.6 mph 16.1 mph 97 % 0.01 in
14:30 29.3 °F 28.6 °F 29.62 in North 11.1 mph 15.0 mph 97 % 0.01 in
14:35 29.3 °F 28.6 °F 29.63 in NNW 9.9 mph 21.9 mph 97 % 0.01 in
14:40 29.3 °F 28.6 °F 29.63 in North 12.0 mph 16.1 mph 97 % 0.01 in
14:46 29.2 °F 28.5 °F 29.63 in NE 12.2 mph 20.7 mph 97 % 0.01 in
14:51 29.2 °F 28.5 °F 29.63 in NNE 10.3 mph 17.3 mph 97 % 0.01 in
14:56 29.1 °F 28.4 °F 29.63 in ENE 11.8 mph 20.7 mph 97 % 0.01 in
15:01 29.1 °F 28.4 °F 29.63 in NNE 12.0 mph 17.0 mph 97 % 0.01 in
15:06 29.0 °F 28.3 °F 29.63 in NNE 8.7 mph 11.5 mph 97 % 0.01 in
15:11 29.0 °F 28.3 °F 29.63 in North 15.6 mph 24.2 mph 97 % 0.01 in
15:16 28.9 °F 28.2 °F 29.64 in NNE 14.1 mph 19.6 mph 97 % 0.01 in
15:21 28.8 °F 28.1 °F 29.64 in NNE 13.3 mph 21.0 mph 97 % 0.01 in
15:26 28.8 °F 28.1 °F 29.64 in NNE 10.5 mph 18.4 mph 97 % 0.01 in
15:31 28.6 °F 27.9 °F 29.64 in NNE 12.8 mph 19.6 mph 97 % 0.02 in
15:37 28.5 °F 27.8 °F 29.64 in NE 10.0 mph 17.3 mph 97 % 0.02 in
15:42 28.5 °F 27.8 °F 29.64 in NE 11.8 mph 21.9 mph 97 % 0.02 in
15:47 28.4 °F 27.7 °F 29.64 in NE 11.7 mph 17.3 mph 97 % 0.02 in
15:52 28.3 °F 27.6 °F 29.64 in ENE 9.8 mph 17.3 mph 97 % 0.02 in
15:57 28.3 °F 27.6 °F 29.64 in NNE 16.7 mph 21.9 mph 97 % 0.03 in
16:02 28.3 °F 27.6 °F 29.64 in NE 14.5 mph 23.0 mph 97 % 0.03 in
16:07 28.2 °F 27.5 °F 29.64 in North 15.3 mph 21.0 mph 97 % 0.03 in
16:12 28.1 °F 27.4 °F 29.64 in North 12.5 mph 19.6 mph 97 % 0.02 in
16:17 28.0 °F 27.3 °F 29.64 in ENE 12.4 mph 16.1 mph 97 % 0.03 in
16:22 28.0 °F 27.3 °F 29.64 in NNE 12.8 mph 25.3 mph 97 % 0.03 in
16:28 27.9 °F 27.2 °F 29.64 in NE 14.5 mph 23.0 mph 97 % 0.03 in
16:33 27.9 °F 27.2 °F 29.64 in ENE 19.4 mph 28.8 mph 97 % 0.02 in
16:38 27.9 °F 27.2 °F 29.64 in NNE 12.3 mph 21.0 mph 97 % 0.03 in
16:43 27.9 °F 27.2 °F 29.64 in NE 15.8 mph 26.5 mph 97 % 0.03 in
16:48 27.8 °F 27.1 °F 29.64 in NE 16.8 mph 28.0 mph 97 % 0.03 in
16:53 27.8 °F 27.1 °F 29.64 in NNE 16.7 mph 26.5 mph 97 % 0.03 in
16:58 27.8 °F 27.1 °F 29.64 in NNE 18.4 mph 28.8 mph 97 % 0.03 in
17:03 27.8 °F 27.1 °F 29.64 in NE 21.8 mph 34.0 mph 97 % 0.03 in
17:08 27.8 °F 27.1 °F 29.64 in NNE 17.6 mph 26.0 mph 97 % 0.03 in
17:13 27.9 °F 27.2 °F 29.64 in NNE 14.6 mph 27.6 mph 97 % 0.03 in
17:19 27.9 °F 27.2 °F 29.64 in NNE 14.2 mph 17.0 mph 97 % 0.03 in
17:24 27.9 °F 27.2 °F 29.64 in NNE 18.0 mph 32.2 mph 97 % 0.03 in
17:29 28.0 °F 27.3 °F 29.64 in NNE 19.5 mph 33.4 mph 97 % 0.04 in
17:34 28.0 °F 27.3 °F 29.64 in NE 17.6 mph 21.0 mph 97 % 0.04 in
17:39 28.0 °F 27.3 °F 29.64 in NNE 17.3 mph 29.9 mph 97 % 0.03 in
17:44 28.0 °F 27.3 °F 29.64 in NNE 13.4 mph 35.7 mph 97 % 0.04 in
17:49 28.1 °F 27.4 °F 29.64 in NNE 18.8 mph 26.5 mph 97 % 0.04 in
17:54 28.1 °F 27.4 °F 29.64 in NNE 15.6 mph 33.4 mph 97 % 0.04 in
17:59 28.0 °F 27.3 °F 29.64 in NNE 20.1 mph 27.6 mph 97 % 0.04 in
18:05 28.1 °F 27.4 °F 29.64 in NNE 20.5 mph 26.0 mph 97 % 0.04 in
18:10 28.1 °F 27.4 °F 29.64 in NE 16.7 mph 19.6 mph 97 % 0.05 in
18:15 28.1 °F 27.4 °F 29.65 in NE 23.3 mph 24.2 mph 97 % 0.06 in
18:20 28.1 °F 27.4 °F 29.65 in North 15.6 mph 30.0 mph 97 % 0.07 in
18:25 28.1 °F 27.4 °F 29.64 in NE 17.6 mph 26.5 mph 97 % 0.07 in
18:30 28.1 °F 27.4 °F 29.65 in North 21.5 mph 27.6 mph 97 % 0.07 in
18:35 28.0 °F 27.3 °F 29.64 in NNE 18.3 mph 32.2 mph 97 % 0.08 in
18:40 27.9 °F 27.2 °F 29.65 in North 19.2 mph 26.5 mph 97 % 0.08 in
18:45 27.7 °F 27.0 °F 29.66 in NNE 13.9 mph 23.0 mph 97 % 0.08 in
18:50 27.5 °F 26.8 °F 29.65 in NE 14.7 mph 21.0 mph 97 % 0.08 in
19:01 27.2 °F 26.5 °F 29.66 in NE 19.4 mph 26.5 mph 97 % 0.08 in
19:06 27.0 °F 26.3 °F 29.66 in NNE 17.6 mph 26.5 mph 97 % 0.09 in
19:11 26.9 °F 26.2 °F 29.66 in NNE 19.1 mph 26.5 mph 97 % 0.06 in
19:16 26.8 °F 26.1 °F 29.66 in NNE 15.4 mph 23.0 mph 97 % 0.06 in
19:21 26.7 °F 26.0 °F 29.66 in NNW 14.7 mph 19.6 mph 97 % 0.06 in
19:26 26.6 °F 25.9 °F 29.66 in NNE 13.9 mph 26.5 mph 97 % 0.05 in
19:31 26.6 °F 25.9 °F 29.66 in North 15.7 mph 24.2 mph 97 % 0.06 in
19:36 26.6 °F 25.9 °F 29.67 in NNE 15.1 mph 25.0 mph 97 % 0.05 in
19:41 26.5 °F 25.8 °F 29.67 in NE 17.3 mph 21.9 mph 97 % 0.05 in
19:47 26.6 °F 25.9 °F 29.66 in NE 16.6 mph 32.2 mph 97 % 0.05 in
19:52 26.6 °F 25.9 °F 29.66 in NNE 20.3 mph 27.6 mph 97 % 0.05 in
19:57 26.6 °F 25.9 °F 29.66 in NNE 16.0 mph 24.2 mph 97 % 0.04 in
20:02 26.6 °F 25.9 °F 29.66 in NNE 17.3 mph 26.5 mph 97 % 0.04 in
20:07 26.6 °F 25.9 °F 29.66 in NE 14.3 mph 24.2 mph 97 % 0.03 in
20:12 26.7 °F 26.0 °F 29.66 in ENE 16.6 mph 21.0 mph 97 % 0.04 in
20:17 26.7 °F 26.0 °F 29.66 in NE 16.5 mph 23.0 mph 97 % 0.03 in
20:22 26.8 °F 26.1 °F 29.65 in NNE 16.6 mph 26.0 mph 97 % 0.03 in
20:27 26.9 °F 26.2 °F 29.65 in NE 11.0 mph 19.6 mph 97 % 0.02 in
20:32 26.9 °F 26.2 °F 29.65 in NNE 14.7 mph 25.3 mph 97 % 0.03 in
20:38 27.0 °F 26.3 °F 29.65 in North 11.0 mph 24.2 mph 97 % 0.03 in
20:43 27.0 °F 26.3 °F 29.65 in NE 12.9 mph 20.7 mph 97 % 0.02 in
20:48 27.1 °F 26.4 °F 29.65 in NE 15.4 mph 21.0 mph 97 % 0.02 in
20:53 27.2 °F 26.5 °F 29.66 in NNE 15.0 mph 23.0 mph 97 % 0.03 in
20:58 27.2 °F 26.5 °F 29.66 in NNE 14.8 mph 20.7 mph 97 % 0.03 in
21:03 27.3 °F 26.6 °F 29.66 in NNE 15.7 mph 20.7 mph 97 % 0.03 in
21:08 27.3 °F 26.6 °F 29.66 in NNE 15.3 mph 25.0 mph 97 % 0.04 in
21:13 27.3 °F 26.6 °F 29.66 in NNE 14.6 mph 23.0 mph 97 % 0.03 in
21:18 27.3 °F 26.6 °F 29.66 in NNE 9.9 mph 15.0 mph 97 % 0.03 in
21:23 27.3 °F 26.6 °F 29.66 in NE 15.1 mph 21.9 mph 97 % 0.03 in
21:29 27.4 °F 26.7 °F 29.66 in NNE 13.1 mph 19.6 mph 97 % 0.04 in
21:34 27.4 °F 26.7 °F 29.66 in North 14.1 mph 16.1 mph 97 % 0.03 in
21:39 27.4 °F 26.7 °F 29.65 in NNE 14.2 mph 20.0 mph 97 % 0.04 in
21:44 27.5 °F 26.8 °F 29.65 in North 12.8 mph 17.3 mph 97 % 0.04 in
21:49 27.5 °F 26.8 °F 29.65 in NNE 14.5 mph 21.9 mph 97 % 0.04 in
21:54 27.5 °F 26.8 °F 29.66 in NNE 13.0 mph 21.9 mph 97 % 0.03 in
21:59 27.5 °F 26.8 °F 29.66 in North 11.8 mph 18.4 mph 97 % 0.04 in
22:04 27.5 °F 26.8 °F 29.66 in NE 12.6 mph 19.6 mph 97 % 0.04 in
22:14 27.6 °F 26.9 °F 29.66 in North 10.4 mph 16.1 mph 97 % 0.03 in
22:20 27.6 °F 26.9 °F 29.67 in NE 9.6 mph 17.3 mph 97 % 0.03 in
22:25 27.6 °F 26.9 °F 29.66 in NE 11.7 mph 18.4 mph 97 % 0.02 in
22:30 27.5 °F 26.8 °F 29.66 in NE 10.9 mph 19.6 mph 97 % 0.02 in
22:35 27.5 °F 26.8 °F 29.67 in North 11.0 mph 11.5 mph 97 % 0.03 in
22:40 27.5 °F 26.8 °F 29.67 in NNE 12.8 mph 19.6 mph 97 % 0.02 in
22:45 27.5 °F 26.8 °F 29.67 in NE 11.3 mph 15.0 mph 97 % 0.02 in
22:50 27.5 °F 26.8 °F 29.67 in NNE 13.8 mph 18.4 mph 97 % 0.02 in
22:55 27.5 °F 26.8 °F 29.67 in North 9.9 mph 20.7 mph 97 % 0.01 in
23:00 27.5 °F 26.8 °F 29.67 in NNE 16.1 mph 19.6 mph 97 % 0.01 in
23:05 27.5 °F 26.8 °F 29.67 in North 13.1 mph 19.6 mph 97 % 0.01 in
23:11 27.5 °F 26.8 °F 29.67 in NE 10.2 mph 19.6 mph 97 % 0.01 in
23:16 27.5 °F 26.8 °F 29.67 in North 12.3 mph 16.1 mph 97 % 0.01 in
23:21 27.6 °F 26.9 °F 29.67 in NNE 13.9 mph 20.0 mph 97 % 0.01 in
23:26 27.6 °F 26.9 °F 29.68 in NNE 10.7 mph 15.0 mph 97 % 0.01 in
23:31 27.7 °F 27.0 °F 29.67 in North 12.0 mph 19.6 mph 97 % 0.01 in
23:36 27.7 °F 27.0 °F 29.67 in NNE 13.9 mph 19.6 mph 97 % 0.00 in
23:41 27.8 °F 27.1 °F 29.67 in North 9.7 mph 13.8 mph 97 % 0.00 in
23:46 27.8 °F 27.1 °F 29.68 in NNE 8.9 mph 17.0 mph 97 % 0.00 in
23:51 27.9 °F 27.2 °F 29.68 in NNE 7.5 mph 10.4 mph 97 % 0.01 in
23:56 28.0 °F 27.3 °F 29.68 in NNW 5.1 mph 11.5 mph 97 % 0.01 in
Crab Meadow Weather
Compliments of Weather Underground - 2.75 mb

Script developed by  Jim McMurry - jmcmurry@mwt.net Adapted for the template by  Wim van der Kuil - Leuven-Template.eu

Recycling: Every ton of mixed paper recycled can save the energy equivalent of 185 gallons of gas.